GW3755 Weather Reports


Display with metric or nautical units.
time (UTC)temp
F
wind
direction
speed
MPH
gust
MPH
rain 1hr
in
rain 24hr
in
rain mn
in
humidity
%
barometer
mb
20260505170139 78 196 1.0 6.0 0.00 0.00 0.00 43 1017.2
20260505164609 76 240 2.0 8.0 0.00 0.00 0.00 44 1017.3
20260505163109 77 232 1.0 7.0 0.00 0.00 0.00 48 1017.2
20260505161612 76 220 2.0 9.0 0.00 0.00 0.00 50 1017.4
20260505160113 76 203 0.0 7.0 0.00 0.00 0.00 54 1017.5
20260505153107 74 141 1.0 6.0 0.00 0.00 0.00 54 1017.7
20260505151559 73 221 2.0 5.0 0.00 0.00 0.00 58 1018.0
20260505124559 62 234 1.0 8.0 0.00 0.00 0.00 78 1017.5
20260505123115 61 202 1.0 5.0 0.00 0.00 0.00 78 1017.3
20260505120105 57 0 0.0 1.0 0.00 0.00 0.00 83 1017.0
20260505114615 55 0 0.0 1.0 0.00 0.00 0.00 85 1016.8
20260505113105 54 0 0.0 2.0 0.00 0.00 0.00 86 1017.0
20260505111608 53 0 0.0 1.0 0.00 0.00 0.00 86 1016.7
20260505101557 53 0 0.0 2.0 0.00 0.00 0.00 85 1016.5
20260505100058 52 0 0.0 1.0 0.00 0.00 0.00 85 1016.5
20260505094600 52 0 0.0 1.0 0.00 0.00 0.00 84 1016.4
20260505093059 53 0 0.0 0.0 0.00 0.00 0.00 82 1016.5
20260505091558 53 0 0.0 2.0 0.00 0.00 0.00 82 1016.3
20260505090100 54 0 0.0 2.0 0.00 0.00 0.00 80 1016.3
20260505084601 54 182 0.0 3.0 0.00 0.00 0.00 80 1016.3
20260505083118 54 210 0.0 1.0 0.00 0.00 0.00 79 1016.0
20260505081604 55 0 0.0 3.0 0.00 0.00 0.00 77 1016.1
20260505074556 55 156 1.0 5.0 0.00 0.00 0.00 75 1015.9
20260505073107 56 232 0.0 2.0 0.00 0.00 0.00 74 1015.9
20260505071605 56 180 0.0 3.0 0.00 0.00 0.00 72 1015.9
20260505070057 56 178 0.0 2.0 0.00 0.00 0.00 72 1015.9
20260505064605 56 157 0.0 4.0 0.00 0.00 0.00 71 1015.9
20260505063058 57 0 1.0 3.0 0.00 0.00 0.00 70 1015.8
20260505061604 57 142 1.0 3.0 0.00 0.00 0.00 68 1015.8
20260505060104 57 170 0.0 4.0 0.00 0.00 0.00 68 1015.9
20260505054606 56 157 0.0 2.0 0.00 0.00 0.00 69 1015.9
20260505053112 58 0 0.0 1.0 0.00 0.00 0.00 64 1016.0
20260505051558 58 0 0.0 1.0 0.00 0.00 0.00 65 1016.1
20260505041614 61 165 0.0 3.0 0.00 0.00 0.00 60 1016.2
20260505040100 62 207 0.0 2.0 0.00 0.00 0.00 58 1016.2
20260505034601 62 221 0.0 2.0 0.00 0.00 0.00 58 1016.3
20260505033100 62 0 0.0 3.0 0.00 0.00 0.00 57 1016.3
20260505031608 62 0 0.0 2.0 0.00 0.00 0.00 57 1016.2
20260505024603 64 189 0.0 6.0 0.00 0.00 0.00 55 1016.3
20260505023104 65 190 1.0 5.0 0.00 0.00 0.00 52 1016.2
20260505021558 66 176 0.0 5.0 0.00 0.00 0.00 51 1016.1
20260505020058 66 188 1.0 4.0 0.00 0.00 0.00 51 1016.0
20260505014603 65 165 0.0 2.0 0.00 0.00 0.00 52 1015.7
20260505013102 65 0 0.0 2.0 0.00 0.00 0.00 50 1015.6
20260505011559 66 0 0.0 1.0 0.00 0.00 0.00 48 1015.4
20260505004558 67 0 0.0 1.0 0.00 0.00 0.00 46 1015.3
20260505003058 69 170 0.0 2.0 0.00 0.00 0.00 44 1015.1
20260505001559 69 192 0.0 2.0 0.00 0.00 0.00 43 1015.1
20260505000109 70 173 1.0 4.0 0.00 0.00 0.00 42 1015.2
20260504234627 72 194 1.0 6.0 0.00 0.00 0.00 40 1014.8
20260504233104 73 140 2.0 7.0 0.00 0.00 0.00 39 1014.8
20260504231605 74 176 2.0 7.0 0.00 0.00 0.00 37 1014.6
20260504230059 75 230 2.0 6.0 0.00 0.00 0.00 36 1014.7
20260504224558 75 207 2.0 7.0 0.00 0.00 0.00 36 1014.5
20260504223100 76 144 1.0 9.0 0.00 0.00 0.00 35 1014.6
20260504221608 76 229 2.0 8.0 0.00 0.00 0.00 33 1014.6
20260504220059 76 211 1.0 11.0 0.00 0.00 0.00 35 1014.6
20260504214600 77 182 1.0 5.0 0.00 0.00 0.00 37 1014.4
20260504213100 77 192 1.0 6.0 0.00 0.00 0.00 34 1014.5
20260504211600 77 261 1.0 9.0 0.00 0.00 0.00 36 1014.5
20260504210110 78 192 1.0 12.0 0.00 0.00 0.00 37 1014.7
20260504204603 78 0 1.0 5.0 0.00 0.00 0.00 34 1014.9
20260504203104 78 126 2.0 9.0 0.00 0.00 0.00 35 1015.1
20260504201611 77 175 1.0 8.0 0.00 0.00 0.00 35 1015.2
20260504194610 77 111 1.0 7.0 0.00 0.00 0.00 33 1015.5
20260504193058 78 169 1.0 10.0 0.00 0.00 0.00 35 1015.7
20260504191600 77 0 1.0 7.0 0.00 0.00 0.00 33 1015.9
20260504190130 78 55 1.0 5.0 0.00 0.00 0.00 34 1016.0
20260504184600 77 205 1.0 6.0 0.00 0.00 0.00 35 1016.3
20260504183058 76 296 1.0 4.0 0.00 0.00 0.00 38 1016.3
20260504181603 77 211 0.0 5.0 0.00 0.00 0.00 36 1016.5
20260504180159 76 0 1.0 5.0 0.00 0.00 0.00 39 1016.6
20260504174600 78 268 0.0 3.0 0.00 0.00 0.00 42 1016.6
20260504173120 75 191 0.0 5.0 0.00 0.00 0.00 38 1016.8
20260504171601 75 0 0.0 5.0 0.00 0.00 0.00 47 1016.8